Time,TemperatureF,DewpointF,PressureIn,WindDirection,WindDirectionDegrees,WindSpeedMPH,WindSpeedGustMPH,Humidity,HourlyPrecipIn,Conditions,Clouds,dailyrainin,SolarRadiationWatts/m^2,SoftwareType,DateUTC
2013-03-16 00:00:00,43.3,39.7,29.81,East,88,1.0,1.0,87,0.00,,,0.01,0,Wunderground v.1.15,2013-03-16 04:00:00,
2013-03-16 00:02:00,43.2,39.6,29.81,ENE,75,2.0,2.0,87,0.00,,,0.00,0,Wunderground v.1.15,2013-03-16 04:02:00,
2013-03-16 00:04:00,43.1,39.5,29.81,East,88,0.0,2.0,87,0.00,,,0.00,0,Wunderground v.1.15,2013-03-16 04:04:00,
2013-03-16 00:09:00,43.1,39.8,29.81,East,88,0.0,2.0,88,0.00,,,0.00,0,Wunderground v.1.15,2013-03-16 04:09:00,
2013-03-16 00:15:00,43.3,40.0,29.81,ENE,59,0.0,1.0,88,0.00,,,0.00,0,Wunderground v.1.15,2013-03-16 04:15:00,
2013-03-16 00:20:00,43.6,40.0,29.81,ENE,59,0.0,0.0,87,0.00,,,0.00,0,Wunderground v.1.15,2013-03-16 04:20:00,
2013-03-16 00:26:00,43.8,39.9,29.81,ENE,59,2.0,2.0,86,0.00,,,0.00,0,Wunderground v.1.15,2013-03-16 04:26:00,
2013-03-16 00:32:00,43.5,39.6,29.82,ENE,59,0.0,1.0,86,0.00,,,0.00,0,Wunderground v.1.15,2013-03-16 04:32:00,
2013-03-16 00:37:00,43.3,40.0,29.82,ENE,59,0.0,1.0,88,0.00,,,0.00,0,Wunderground v.1.15,2013-03-16 04:37:00,
2013-03-16 00:42:00,43.1,39.8,29.81,ENE,59,1.0,2.0,88,0.00,,,0.00,0,Wunderground v.1.15,2013-03-16 04:42:00,
2013-03-16 00:47:00,42.9,39.9,29.81,ENE,59,1.0,2.0,89,0.00,,,0.00,0,Wunderground v.1.15,2013-03-16 04:47:00,
2013-03-16 00:53:00,42.9,39.9,29.82,ENE,59,0.0,1.0,89,0.00,,,0.00,0,Wunderground v.1.15,2013-03-16 04:53:00,
2013-03-16 00:58:00,42.9,39.9,29.81,ENE,59,2.0,2.0,89,0.00,,,0.00,0,Wunderground v.1.15,2013-03-16 04:58:00,
2013-03-16 01:03:00,42.7,39.7,29.80,ENE,59,0.0,2.0,89,0.00,,,0.00,0,Wunderground v.1.15,2013-03-16 05:03:00,
2013-03-16 01:08:00,42.6,39.9,29.80,ENE,59,0.0,2.0,90,0.00,,,0.00,0,Wunderground v.1.15,2013-03-16 05:08:00,
2013-03-16 01:13:00,42.7,40.0,29.80,ENE,59,0.0,1.0,90,0.00,,,0.00,0,Wunderground v.1.15,2013-03-16 05:13:00,
2013-03-16 01:19:00,42.9,40.2,29.80,ENE,60,2.0,2.0,90,0.00,,,0.00,0,Wunderground v.1.15,2013-03-16 05:19:00,
2013-03-16 01:24:00,43.0,40.0,29.79,ENE,60,0.0,1.0,89,0.00,,,0.00,0,Wunderground v.1.15,2013-03-16 05:24:00,
2013-03-16 01:30:00,42.9,39.9,29.78,ENE,60,1.0,1.0,89,0.00,,,0.00,0,Wunderground v.1.15,2013-03-16 05:30:00,
2013-03-16 01:35:00,42.9,39.9,29.78,ENE,60,1.0,3.0,89,0.00,,,0.00,0,Wunderground v.1.15,2013-03-16 05:35:00,
2013-03-16 01:40:00,42.7,40.0,29.77,ENE,69,2.0,2.0,90,0.00,,,0.00,0,Wunderground v.1.15,2013-03-16 05:40:00,
2013-03-16 01:46:00,42.7,40.0,29.78,East,84,0.0,2.0,90,0.00,,,0.00,0,Wunderground v.1.15,2013-03-16 05:46:00,
2013-03-16 01:51:00,42.8,40.1,29.79,East,84,0.0,1.0,90,0.00,,,0.01,0,Wunderground v.1.15,2013-03-16 05:51:00,
2013-03-16 01:57:00,42.8,40.1,29.78,East,84,5.0,5.0,90,0.21,,,0.03,0,Wunderground v.1.15,2013-03-16 05:57:00,
2013-03-16 02:02:00,42.7,40.3,29.78,East,100,0.0,2.0,91,0.29,,,0.05,0,Wunderground v.1.15,2013-03-16 06:02:00,
2013-03-16 02:07:00,42.6,40.2,29.78,East,100,0.0,2.0,91,0.26,,,0.08,0,Wunderground v.1.15,2013-03-16 06:07:00,
2013-03-16 02:12:00,42.5,40.3,29.77,East,100,3.0,5.0,92,0.25,,,0.10,0,Wunderground v.1.15,2013-03-16 06:12:00,
2013-03-16 02:17:00,42.4,40.2,29.74,ESE,105,4.0,7.0,92,0.19,,,0.11,0,Wunderground v.1.15,2013-03-16 06:17:00,
2013-03-16 02:22:00,42.4,40.5,29.75,ESE,123,7.0,7.0,93,0.15,,,0.12,0,Wunderground v.1.15,2013-03-16 06:22:00,
2013-03-16 02:27:00,42.5,40.6,29.76,SE,130,0.0,7.0,93,0.09,,,0.13,0,Wunderground v.1.15,2013-03-16 06:27:00,
2013-03-16 02:32:00,42.7,40.8,29.76,SE,130,3.0,3.0,93,0.08,,,0.13,0,Wunderground v.1.15,2013-03-16 06:32:00,
2013-03-16 02:38:00,42.7,40.8,29.76,SE,128,1.0,3.0,93,0.05,,,0.13,0,Wunderground v.1.15,2013-03-16 06:38:00,
2013-03-16 02:43:00,42.7,40.8,29.75,SE,128,2.0,2.0,93,0.05,,,0.14,0,Wunderground v.1.15,2013-03-16 06:43:00,
2013-03-16 02:48:00,42.6,40.7,29.72,SE,138,3.0,7.0,93,0.05,,,0.14,0,Wunderground v.1.15,2013-03-16 06:48:00,
2013-03-16 02:53:00,42.4,40.5,29.72,SE,134,5.0,8.0,93,0.04,,,0.14,0,Wunderground v.1.15,2013-03-16 06:53:00,
2013-03-16 02:58:00,42.3,40.4,29.71,SSE,148,3.0,10.0,93,0.00,,,0.14,0,Wunderground v.1.15,2013-03-16 06:58:00,
2013-03-16 03:03:00,42.3,40.7,29.71,SE,143,5.0,11.0,94,0.00,,,0.15,0,Wunderground v.1.15,2013-03-16 07:03:00,
2013-03-16 03:08:00,42.3,40.7,29.71,SE,125,4.0,11.0,94,0.00,,,0.15,0,Wunderground v.1.15,2013-03-16 07:08:00,
2013-03-16 03:13:00,42.5,40.9,29.71,East,82,3.0,8.0,94,0.00,,,0.15,0,Wunderground v.1.15,2013-03-16 07:13:00,
2013-03-16 03:18:00,42.5,40.6,29.71,SE,126,3.0,8.0,93,0.00,,,0.15,0,Wunderground v.1.15,2013-03-16 07:18:00,
2013-03-16 03:23:00,42.7,41.1,29.70,SE,134,4.0,8.0,94,0.00,,,0.15,0,Wunderground v.1.15,2013-03-16 07:23:00,
2013-03-16 03:28:00,42.8,40.9,29.70,SE,128,2.0,12.0,93,0.00,,,0.15,0,Wunderground v.1.15,2013-03-16 07:28:00,
2013-03-16 03:33:00,43.0,41.1,29.70,SE,146,2.0,8.0,93,0.00,,,0.15,0,Wunderground v.1.15,2013-03-16 07:33:00,
2013-03-16 03:38:00,43.2,41.3,29.69,ESE,117,4.0,10.0,93,0.00,,,0.15,0,Wunderground v.1.15,2013-03-16 07:38:00,
2013-03-16 03:43:00,43.3,41.4,29.69,ESE,117,0.0,11.0,93,0.00,,,0.15,0,Wunderground v.1.15,2013-03-16 07:43:00,
2013-03-16 03:48:00,43.3,41.1,29.69,SE,142,6.0,11.0,92,0.00,,,0.15,0,Wunderground v.1.15,2013-03-16 07:48:00,
2013-03-16 03:53:00,43.3,41.1,29.69,SSE,155,1.0,6.0,92,0.00,,,0.15,0,Wunderground v.1.15,2013-03-16 07:53:00,
2013-03-16 03:58:00,43.2,41.0,29.68,SE,138,5.0,8.0,92,0.00,,,0.15,0,Wunderground v.1.15,2013-03-16 07:58:00,
2013-03-16 04:04:00,43.1,40.9,29.69,SSE,153,2.0,7.0,92,0.00,,,0.15,0,Wunderground v.1.15,2013-03-16 08:04:00,
2013-03-16 04:09:00,43.1,40.9,29.68,South,184,0.0,7.0,92,0.00,,,0.15,0,Wunderground v.1.15,2013-03-16 08:09:00,
2013-03-16 04:14:00,43.1,41.2,29.68,SE,130,2.0,4.0,93,0.00,,,0.15,0,Wunderground v.1.15,2013-03-16 08:14:00,
2013-03-16 04:19:00,43.1,41.2,29.68,SE,130,1.0,4.0,93,0.00,,,0.15,0,Wunderground v.1.15,2013-03-16 08:19:00,
2013-03-16 04:24:00,43.1,41.2,29.67,SE,130,2.0,4.0,93,0.00,,,0.15,0,Wunderground v.1.15,2013-03-16 08:24:00,
2013-03-16 04:29:00,43.1,41.2,29.67,SE,131,0.0,5.0,93,0.00,,,0.15,0,Wunderground v.1.15,2013-03-16 08:29:00,
2013-03-16 04:34:00,43.2,41.3,29.67,SE,133,1.0,3.0,93,0.00,,,0.15,0,Wunderground v.1.15,2013-03-16 08:34:00,
2013-03-16 04:39:00,43.3,41.4,29.67,SE,136,3.0,5.0,93,0.00,,,0.15,0,Wunderground v.1.15,2013-03-16 08:39:00,
2013-03-16 04:44:00,43.4,41.5,29.67,SE,136,0.0,4.0,93,0.00,,,0.15,0,Wunderground v.1.15,2013-03-16 08:44:00,
2013-03-16 04:49:00,43.3,41.4,29.67,SE,136,2.0,4.0,93,0.00,,,0.15,0,Wunderground v.1.15,2013-03-16 08:49:00,
2013-03-16 04:54:00,43.3,41.4,29.67,SE,138,1.0,4.0,93,0.00,,,0.15,0,Wunderground v.1.15,2013-03-16 08:54:00,
2013-03-16 04:59:00,43.3,41.4,29.66,SE,138,0.0,4.0,93,0.00,,,0.15,0,Wunderground v.1.15,2013-03-16 08:59:00,
2013-03-16 05:05:00,43.1,41.2,29.66,SE,138,0.0,1.0,93,0.00,,,0.15,0,Wunderground v.1.15,2013-03-16 09:05:00,
2013-03-16 05:10:00,43.1,41.2,29.66,SE,138,0.0,0.0,93,0.00,,,0.15,0,Wunderground v.1.15,2013-03-16 09:10:00,
2013-03-16 05:15:00,43.1,41.2,29.66,SE,138,0.0,4.0,93,0.00,,,0.15,0,Wunderground v.1.15,2013-03-16 09:15:00,
2013-03-16 05:20:00,43.0,41.1,29.65,SE,138,0.0,1.0,93,0.00,,,0.15,0,Wunderground v.1.15,2013-03-16 09:20:00,
2013-03-16 05:25:00,42.8,41.2,29.65,SE,138,0.0,2.0,94,0.00,,,0.15,0,Wunderground v.1.15,2013-03-16 09:25:00,
2013-03-16 05:30:00,42.9,41.3,29.65,SE,138,0.0,1.0,94,0.00,,,0.15,0,Wunderground v.1.15,2013-03-16 09:30:00,
2013-03-16 05:35:00,42.8,41.2,29.65,SE,138,0.0,3.0,94,0.00,,,0.15,0,Wunderground v.1.15,2013-03-16 09:35:00,
2013-03-16 05:40:00,42.7,41.1,29.65,SE,138,0.0,0.0,94,0.00,,,0.15,0,Wunderground v.1.15,2013-03-16 09:40:00,
2013-03-16 05:45:00,42.7,41.1,29.65,SE,138,0.0,2.0,94,0.00,,,0.15,0,Wunderground v.1.15,2013-03-16 09:45:00,
2013-03-16 05:50:00,42.7,41.1,29.65,SE,138,0.0,0.0,94,0.00,,,0.15,0,Wunderground v.1.15,2013-03-16 09:50:00,
2013-03-16 05:55:00,42.4,40.8,29.65,SE,138,0.0,2.0,94,0.00,,,0.15,0,Wunderground v.1.15,2013-03-16 09:55:00,
2013-03-16 06:00:00,42.4,40.8,29.65,SE,138,0.0,0.0,94,0.00,,,0.15,0,Wunderground v.1.15,2013-03-16 10:00:00,
2013-03-16 06:05:00,42.4,41.1,29.65,SE,138,1.0,1.0,95,0.00,,,0.15,0,Wunderground v.1.15,2013-03-16 10:05:00,
2013-03-16 06:10:00,42.1,40.5,29.65,SE,138,0.0,0.0,94,0.00,,,0.15,0,Wunderground v.1.15,2013-03-16 10:10:00,
2013-03-16 06:15:00,41.8,40.2,29.65,SE,138,0.0,1.0,94,0.00,,,0.15,0,Wunderground v.1.15,2013-03-16 10:15:00,
2013-03-16 06:20:00,41.5,39.9,29.65,SE,138,0.0,0.0,94,0.00,,,0.15,0,Wunderground v.1.15,2013-03-16 10:20:00,
2013-03-16 06:25:00,40.4,38.8,29.65,SE,138,0.0,0.0,94,0.00,,,0.15,0,Wunderground v.1.15,2013-03-16 10:25:00,
2013-03-16 06:30:00,40.1,38.8,29.65,SE,138,0.0,0.0,95,0.00,,,0.15,0,Wunderground v.1.15,2013-03-16 10:30:00,
2013-03-16 06:35:00,39.8,38.5,29.65,SE,138,0.0,0.0,95,0.00,,,0.15,0,Wunderground v.1.15,2013-03-16 10:35:00,
2013-03-16 06:40:00,39.3,38.0,29.65,SE,138,0.0,0.0,95,0.00,,,0.15,0,Wunderground v.1.15,2013-03-16 10:40:00,
2013-03-16 06:45:00,39.0,37.7,29.65,SE,138,0.0,0.0,95,0.00,,,0.15,0,Wunderground v.1.15,2013-03-16 10:45:00,
2013-03-16 06:50:00,39.5,38.5,29.65,SE,138,0.0,0.0,96,0.00,,,0.15,0,Wunderground v.1.15,2013-03-16 10:50:00,
2013-03-16 06:55:00,39.9,38.9,29.65,SE,138,0.0,0.0,96,0.00,,,0.15,0,Wunderground v.1.15,2013-03-16 10:55:00,
2013-03-16 07:00:00,38.8,37.5,29.65,SE,138,0.0,0.0,95,0.00,,,0.15,0,Wunderground v.1.15,2013-03-16 11:00:00,
2013-03-16 07:05:00,39.1,38.1,29.65,SE,138,0.0,2.0,96,0.00,,,0.15,0,Wunderground v.1.15,2013-03-16 11:05:00,
2013-03-16 07:10:00,38.7,37.4,29.66,SE,138,0.0,0.0,95,0.00,,,0.15,0,Wunderground v.1.15,2013-03-16 11:10:00,
2013-03-16 07:15:00,38.0,36.7,29.65,SE,138,2.0,2.0,95,0.00,,,0.15,0,Wunderground v.1.15,2013-03-16 11:15:00,
2013-03-16 07:20:00,38.3,37.3,29.65,SE,138,0.0,1.0,96,0.00,,,0.15,0,Wunderground v.1.15,2013-03-16 11:20:00,
2013-03-16 07:26:00,37.7,36.7,29.65,SE,138,0.0,1.0,96,0.00,,,0.15,0,Wunderground v.1.15,2013-03-16 11:26:00,
2013-03-16 07:31:00,37.8,36.8,29.65,SE,138,0.0,0.0,96,0.00,,,0.15,0,Wunderground v.1.15,2013-03-16 11:31:00,
2013-03-16 07:36:00,37.7,36.7,29.66,SE,138,0.0,1.0,96,0.00,,,0.15,0,Wunderground v.1.15,2013-03-16 11:36:00,
2013-03-16 07:41:00,37.5,36.5,29.65,SE,138,0.0,0.0,96,0.00,,,0.15,0,Wunderground v.1.15,2013-03-16 11:41:00,
2013-03-16 07:46:00,37.2,36.2,29.65,SE,138,0.0,0.0,96,0.00,,,0.15,0,Wunderground v.1.15,2013-03-16 11:46:00,
2013-03-16 07:52:00,37.1,36.1,29.65,SE,138,2.0,2.0,96,0.00,,,0.15,9,Wunderground v.1.15,2013-03-16 11:52:00,
2013-03-16 07:57:00,37.3,36.5,29.65,SE,138,0.0,2.0,97,0.00,,,0.15,12,Wunderground v.1.15,2013-03-16 11:57:00,
2013-03-16 08:02:00,37.6,36.8,29.66,SE,138,0.0,1.0,97,0.00,,,0.15,14,Wunderground v.1.15,2013-03-16 12:02:00,
2013-03-16 08:07:00,37.5,36.7,29.66,SE,138,0.0,1.0,97,0.00,,,0.15,14,Wunderground v.1.15,2013-03-16 12:07:00,
2013-03-16 08:12:00,39.0,38.2,29.66,SSE,154,0.0,4.0,97,0.00,,,0.15,14,Wunderground v.1.15,2013-03-16 12:12:00,
2013-03-16 08:17:00,40.0,39.5,29.65,SSE,154,0.0,4.0,98,0.00,,,0.15,14,Wunderground v.1.15,2013-03-16 12:17:00,
2013-03-16 08:22:00,40.4,39.9,29.64,SSE,154,0.0,3.0,98,0.00,,,0.15,21,Wunderground v.1.15,2013-03-16 12:22:00,
2013-03-16 08:27:00,40.1,39.3,29.63,SSE,154,0.0,3.0,97,0.00,,,0.15,28,Wunderground v.1.15,2013-03-16 12:27:00,
2013-03-16 08:32:00,40.5,40.0,29.63,SSE,154,0.0,0.0,98,0.00,,,0.15,37,Wunderground v.1.15,2013-03-16 12:32:00,
2013-03-16 08:37:00,41.3,40.8,29.62,SSE,154,0.0,0.0,98,0.00,,,0.15,56,Wunderground v.1.15,2013-03-16 12:37:00,
2013-03-16 08:42:00,42.0,41.5,29.62,SSE,154,2.0,3.0,98,0.00,,,0.15,97,Wunderground v.1.15,2013-03-16 12:42:00,
2013-03-16 08:47:00,43.2,42.7,29.62,SSE,154,2.0,4.0,98,0.00,,,0.15,128,Wunderground v.1.15,2013-03-16 12:47:00,
2013-03-16 08:52:00,44.0,43.5,29.62,SSE,154,3.0,3.0,98,0.00,,,0.15,84,Wunderground v.1.15,2013-03-16 12:52:00,
2013-03-16 08:57:00,44.3,43.8,29.61,SSE,154,0.0,5.0,98,0.00,,,0.15,102,Wunderground v.1.15,2013-03-16 12:57:00,
2013-03-16 09:03:00,44.9,44.4,29.62,SSE,154,3.0,4.0,98,0.00,,,0.15,142,Wunderground v.1.15,2013-03-16 13:03:00,
2013-03-16 09:08:00,45.5,44.7,29.62,South,180,6.0,6.0,97,0.00,,,0.15,158,Wunderground v.1.15,2013-03-16 13:08:00,
2013-03-16 09:13:00,46.1,45.3,29.62,SSW,192,2.0,5.0,97,0.00,,,0.15,174,Wunderground v.1.15,2013-03-16 13:13:00,
2013-03-16 09:18:00,46.7,45.6,29.62,SSW,213,5.0,6.0,96,0.00,,,0.15,142,Wunderground v.1.15,2013-03-16 13:18:00,
2013-03-16 09:23:00,47.2,46.1,29.63,SW,236,5.0,8.0,96,0.00,,,0.15,197,Wunderground v.1.15,2013-03-16 13:23:00,
2013-03-16 09:28:00,47.6,46.2,29.63,SW,235,3.0,8.0,95,0.00,,,0.15,193,Wunderground v.1.15,2013-03-16 13:28:00,
2013-03-16 09:33:00,47.8,46.2,29.63,SW,236,7.0,9.0,94,0.00,,,0.15,165,Wunderground v.1.15,2013-03-16 13:33:00,
2013-03-16 09:38:00,48.1,46.2,29.62,WSW,240,5.0,10.0,93,0.00,,,0.15,137,Wunderground v.1.15,2013-03-16 13:38:00,
2013-03-16 09:43:00,48.2,46.3,29.62,WSW,240,5.0,8.0,93,0.00,,,0.15,176,Wunderground v.1.15,2013-03-16 13:43:00,
2013-03-16 09:48:00,48.5,46.6,29.63,WSW,240,7.0,9.0,93,0.00,,,0.15,253,Wunderground v.1.15,2013-03-16 13:48:00,
2013-03-16 09:53:00,48.8,46.9,29.63,WSW,244,8.0,10.0,93,0.00,,,0.15,283,Wunderground v.1.15,2013-03-16 13:53:00,
2013-03-16 09:58:00,49.2,47.0,29.64,SW,228,9.0,10.0,92,0.00,,,0.15,279,Wunderground v.1.15,2013-03-16 13:58:00,
2013-03-16 10:03:00,49.5,47.3,29.64,SW,232,7.0,11.0,92,0.00,,,0.15,257,Wunderground v.1.15,2013-03-16 14:03:00,
2013-03-16 10:08:00,49.7,47.2,29.64,SW,236,3.0,11.0,91,0.00,,,0.15,281,Wunderground v.1.15,2013-03-16 14:08:00,
2013-03-16 10:14:00,50.8,48.6,29.64,WSW,257,6.0,10.0,92,0.00,,,0.15,401,Wunderground v.1.15,2013-03-16 14:14:00,
2013-03-16 10:19:00,51.7,48.9,29.64,WSW,255,8.0,11.0,90,0.00,,,0.15,86,Wunderground v.1.15,2013-03-16 14:19:00,
2013-03-16 10:24:00,51.9,48.8,29.64,WSW,248,6.0,8.0,89,0.00,,,0.15,118,Wunderground v.1.15,2013-03-16 14:24:00,
2013-03-16 10:29:00,52.0,48.9,29.64,WSW,250,4.0,8.0,89,0.00,,,0.15,144,Wunderground v.1.15,2013-03-16 14:29:00,
2013-03-16 10:34:00,52.2,48.8,29.64,WSW,250,6.0,8.0,88,0.00,,,0.15,174,Wunderground v.1.15,2013-03-16 14:34:00,
2013-03-16 10:39:00,52.6,49.1,29.64,WSW,250,1.0,9.0,88,0.00,,,0.15,118,Wunderground v.1.15,2013-03-16 14:39:00,
2013-03-16 10:44:00,52.9,49.4,29.64,WSW,250,2.0,4.0,88,0.00,,,0.15,98,Wunderground v.1.15,2013-03-16 14:44:00,
2013-03-16 10:49:00,53.1,49.3,29.64,West,264,1.0,7.0,87,0.00,,,0.15,104,Wunderground v.1.15,2013-03-16 14:49:00,
2013-03-16 10:54:00,53.3,49.5,29.64,WSW,256,4.0,6.0,87,0.00,,,0.15,113,Wunderground v.1.15,2013-03-16 14:54:00,
2013-03-16 10:59:00,53.5,49.1,29.64,WNW,287,3.0,6.0,85,0.00,,,0.15,174,Wunderground v.1.15,2013-03-16 14:59:00,
2013-03-16 11:04:00,53.8,49.1,29.64,West,281,4.0,9.0,84,0.00,,,0.15,204,Wunderground v.1.15,2013-03-16 15:04:00,
2013-03-16 11:09:00,54.0,49.3,29.64,WSW,254,6.0,12.0,84,0.00,,,0.15,243,Wunderground v.1.15,2013-03-16 15:09:00,
2013-03-16 11:14:00,54.1,49.1,29.64,West,259,7.0,13.0,83,0.00,,,0.15,295,Wunderground v.1.15,2013-03-16 15:14:00,
2013-03-16 11:19:00,54.4,49.3,29.64,West,268,5.0,13.0,83,0.00,,,0.15,483,Wunderground v.1.15,2013-03-16 15:19:00,
2013-03-16 11:24:00,55.0,49.9,29.65,WNW,286,3.0,8.0,83,0.00,,,0.15,522,Wunderground v.1.15,2013-03-16 15:24:00,
2013-03-16 11:29:00,55.7,50.3,29.65,WNW,286,4.0,8.0,82,0.00,,,0.15,677,Wunderground v.1.15,2013-03-16 15:29:00,
2013-03-16 11:34:00,55.8,50.1,29.66,WNW,298,4.0,5.0,81,0.00,,,0.15,311,Wunderground v.1.15,2013-03-16 15:34:00,
2013-03-16 11:40:00,55.6,50.2,29.66,West,265,3.0,3.0,82,0.00,,,0.15,466,Wunderground v.1.15,2013-03-16 15:40:00,
2013-03-16 11:45:00,55.7,50.0,29.66,West,281,5.0,11.0,81,0.00,,,0.15,599,Wunderground v.1.15,2013-03-16 15:45:00,
2013-03-16 11:50:00,56.0,50.3,29.66,West,261,1.0,4.0,81,0.00,,,0.15,541,Wunderground v.1.15,2013-03-16 15:50:00,
2013-03-16 11:55:00,56.2,49.8,29.66,West,272,2.0,7.0,79,0.00,,,0.15,571,Wunderground v.1.15,2013-03-16 15:55:00,
2013-03-16 12:00:00,56.3,49.9,29.66,West,275,4.0,4.0,79,0.00,,,0.15,538,Wunderground v.1.15,2013-03-16 16:00:00,
2013-03-16 12:05:00,56.3,49.5,29.67,WNW,286,5.0,10.0,78,0.00,,,0.15,520,Wunderground v.1.15,2013-03-16 16:05:00,
2013-03-16 12:10:00,56.5,50.4,29.67,WNW,288,3.0,5.0,80,0.00,,,0.15,540,Wunderground v.1.15,2013-03-16 16:10:00,
2013-03-16 12:15:00,56.4,49.6,29.68,WNW,282,3.0,12.0,78,0.00,,,0.15,490,Wunderground v.1.15,2013-03-16 16:15:00,
2013-03-16 12:20:00,56.1,49.3,29.68,West,277,3.0,5.0,78,0.00,,,0.15,522,Wunderground v.1.15,2013-03-16 16:20:00,
2013-03-16 12:25:00,56.0,49.2,29.68,WNW,282,4.0,11.0,78,0.00,,,0.15,482,Wunderground v.1.15,2013-03-16 16:25:00,
2013-03-16 12:30:00,55.6,48.5,29.69,NW,305,2.0,4.0,77,0.00,,,0.15,313,Wunderground v.1.15,2013-03-16 16:30:00,
2013-03-16 12:35:00,55.3,48.6,29.69,WNW,300,2.0,8.0,78,0.00,,,0.15,243,Wunderground v.1.15,2013-03-16 16:35:00,
2013-03-16 12:40:00,54.2,47.8,29.70,NW,317,6.0,6.0,79,0.00,,,0.15,510,Wunderground v.1.15,2013-03-16 16:40:00,
2013-03-16 12:45:00,53.4,47.0,29.70,NNW,336,3.0,8.0,79,0.00,,,0.15,424,Wunderground v.1.15,2013-03-16 16:45:00,
2013-03-16 12:50:00,52.9,46.9,29.71,NW,315,3.0,5.0,80,0.00,,,0.15,722,Wunderground v.1.15,2013-03-16 16:50:00,
2013-03-16 12:55:00,52.3,46.3,29.71,NW,311,5.0,6.0,80,0.00,,,0.15,353,Wunderground v.1.15,2013-03-16 16:55:00,
2013-03-16 13:00:00,51.7,46.1,29.72,NW,315,3.0,4.0,81,0.00,,,0.15,330,Wunderground v.1.15,2013-03-16 17:00:00,
2013-03-16 13:05:00,51.6,45.6,29.72,NW,309,3.0,6.0,80,0.00,,,0.15,715,Wunderground v.1.15,2013-03-16 17:05:00,
2013-03-16 13:10:00,52.3,46.6,29.73,WNW,287,2.0,5.0,81,0.00,,,0.15,715,Wunderground v.1.15,2013-03-16 17:10:00,
2013-03-16 13:15:00,52.1,45.8,29.73,WNW,288,3.0,7.0,79,0.00,,,0.15,782,Wunderground v.1.15,2013-03-16 17:15:00,
2013-03-16 13:20:00,52.3,46.6,29.74,WNW,293,2.0,6.0,81,0.00,,,0.15,738,Wunderground v.1.15,2013-03-16 17:20:00,
2013-03-16 13:25:00,52.2,45.9,29.74,West,277,3.0,7.0,79,0.00,,,0.15,717,Wunderground v.1.15,2013-03-16 17:25:00,
2013-03-16 13:30:00,52.3,46.0,29.74,NW,306,2.0,6.0,79,0.00,,,0.15,513,Wunderground v.1.15,2013-03-16 17:30:00,
2013-03-16 13:35:00,52.0,45.7,29.74,WNW,286,5.0,8.0,79,0.00,,,0.15,740,Wunderground v.1.15,2013-03-16 17:35:00,
2013-03-16 13:41:00,52.2,45.9,29.75,WNW,286,2.0,6.0,79,0.00,,,0.15,446,Wunderground v.1.15,2013-03-16 17:41:00,
2013-03-16 13:46:00,52.2,45.5,29.75,WNW,299,4.0,9.0,78,0.00,,,0.15,373,Wunderground v.1.15,2013-03-16 17:46:00,
2013-03-16 13:52:00,52.3,45.6,29.75,NW,323,2.0,5.0,78,0.00,,,0.15,227,Wunderground v.1.15,2013-03-16 17:52:00,
2013-03-16 13:57:00,51.8,45.2,29.76,WNW,296,3.0,7.0,78,0.00,,,0.15,262,Wunderground v.1.15,2013-03-16 17:57:00,
2013-03-16 14:02:00,51.4,45.1,29.76,WNW,289,3.0,6.0,79,0.00,,,0.15,248,Wunderground v.1.15,2013-03-16 18:02:00,
2013-03-16 14:07:00,51.5,45.2,29.76,WNW,288,6.0,6.0,79,0.00,,,0.15,278,Wunderground v.1.15,2013-03-16 18:07:00,
2013-03-16 14:12:00,51.4,44.8,29.76,WNW,299,3.0,6.0,78,0.00,,,0.15,329,Wunderground v.1.15,2013-03-16 18:12:00,
2013-03-16 14:17:00,51.3,44.7,29.77,WNW,291,3.0,9.0,78,0.00,,,0.15,325,Wunderground v.1.15,2013-03-16 18:17:00,
2013-03-16 14:22:00,51.2,44.6,29.77,WNW,291,6.0,8.0,78,0.00,,,0.15,431,Wunderground v.1.15,2013-03-16 18:22:00,
2013-03-16 14:27:00,51.0,43.7,29.77,NW,315,5.0,8.0,76,0.00,,,0.15,279,Wunderground v.1.15,2013-03-16 18:27:00,
2013-03-16 14:32:00,50.1,43.5,29.78,WNW,290,7.0,9.0,78,0.00,,,0.15,308,Wunderground v.1.15,2013-03-16 18:32:00,
2013-03-16 14:37:00,50.4,44.8,29.78,NW,324,5.0,9.0,81,0.00,,,0.15,279,Wunderground v.1.15,2013-03-16 18:37:00,
2013-03-16 14:42:00,49.7,43.5,29.79,NW,305,5.0,5.0,79,0.00,,,0.15,297,Wunderground v.1.15,2013-03-16 18:42:00,
2013-03-16 14:47:00,49.1,42.9,29.79,NW,311,4.0,9.0,79,0.00,,,0.15,295,Wunderground v.1.15,2013-03-16 18:47:00,
2013-03-16 14:52:00,48.7,42.5,29.80,WNW,282,6.0,7.0,79,0.00,,,0.15,271,Wunderground v.1.15,2013-03-16 18:52:00,
2013-03-16 14:58:00,48.2,42.3,29.80,NW,313,4.0,8.0,80,0.00,,,0.15,279,Wunderground v.1.15,2013-03-16 18:58:00,
2013-03-16 15:03:00,47.8,41.9,29.81,NW,323,4.0,7.0,80,0.00,,,0.15,255,Wunderground v.1.15,2013-03-16 19:03:00,
2013-03-16 15:08:00,47.4,41.9,29.81,NW,314,3.0,9.0,81,0.00,,,0.15,206,Wunderground v.1.15,2013-03-16 19:08:00,
2013-03-16 15:13:00,47.0,41.8,29.81,NW,319,3.0,6.0,82,0.00,,,0.15,216,Wunderground v.1.15,2013-03-16 19:13:00,
2013-03-16 15:18:00,46.8,41.9,29.81,NW,314,3.0,6.0,83,0.00,,,0.15,204,Wunderground v.1.15,2013-03-16 19:18:00,
2013-03-16 15:23:00,46.8,41.6,29.81,NW,319,5.0,7.0,82,0.00,,,0.15,190,Wunderground v.1.15,2013-03-16 19:23:00,
2013-03-16 15:28:00,46.4,41.5,29.81,NW,310,3.0,7.0,83,0.00,,,0.15,169,Wunderground v.1.15,2013-03-16 19:28:00,
2013-03-16 15:33:00,46.1,41.2,29.82,WNW,292,3.0,7.0,83,0.00,,,0.15,127,Wunderground v.1.15,2013-03-16 19:33:00,
2013-03-16 15:38:00,45.9,41.0,29.82,WNW,302,6.0,7.0,83,0.00,,,0.15,111,Wunderground v.1.15,2013-03-16 19:38:00,
2013-03-16 15:43:00,45.4,40.8,29.82,NW,319,4.0,7.0,84,0.00,,,0.15,149,Wunderground v.1.15,2013-03-16 19:43:00,
2013-03-16 15:48:00,45.2,40.7,29.83,WNW,292,4.0,7.0,84,0.00,,,0.15,134,Wunderground v.1.15,2013-03-16 19:48:00,
2013-03-16 15:54:00,44.9,40.4,29.83,NW,315,2.0,5.0,84,0.00,,,0.15,151,Wunderground v.1.15,2013-03-16 19:54:00,
2013-03-16 15:59:00,44.7,40.5,29.83,North,10,3.0,8.0,85,0.00,,,0.15,160,Wunderground v.1.15,2013-03-16 19:59:00,
2013-03-16 16:04:00,44.4,39.9,29.83,NW,308,4.0,7.0,84,0.00,,,0.15,128,Wunderground v.1.15,2013-03-16 20:04:00,
2013-03-16 16:09:00,44.1,39.9,29.83,NW,325,3.0,7.0,85,0.00,,,0.15,93,Wunderground v.1.15,2013-03-16 20:09:00,
2013-03-16 16:14:00,43.9,39.7,29.84,NNW,333,3.0,5.0,85,0.00,,,0.15,100,Wunderground v.1.15,2013-03-16 20:14:00,
2013-03-16 16:19:00,43.5,39.3,29.84,NNW,331,2.0,8.0,85,0.00,,,0.15,149,Wunderground v.1.15,2013-03-16 20:19:00,
2013-03-16 16:24:00,43.5,39.6,29.84,NW,321,5.0,6.0,86,0.00,,,0.15,139,Wunderground v.1.15,2013-03-16 20:24:00,
2013-03-16 16:29:00,43.1,38.9,29.84,NNW,327,3.0,7.0,85,0.00,,,0.15,128,Wunderground v.1.15,2013-03-16 20:29:00,
2013-03-16 16:34:00,43.0,38.8,29.84,NNW,346,2.0,6.0,85,0.00,,,0.15,90,Wunderground v.1.15,2013-03-16 20:34:00,
2013-03-16 16:39:00,42.8,38.6,29.85,NNW,338,2.0,8.0,85,0.00,,,0.15,88,Wunderground v.1.15,2013-03-16 20:39:00,
2013-03-16 16:44:00,42.6,38.4,29.85,NW,317,4.0,6.0,85,0.00,,,0.15,91,Wunderground v.1.15,2013-03-16 20:44:00,
2013-03-16 16:49:00,42.3,38.1,29.86,NW,313,8.0,9.0,85,0.00,,,0.15,81,Wunderground v.1.15,2013-03-16 20:49:00,
2013-03-16 16:54:00,42.0,38.1,29.86,NNW,344,3.0,8.0,86,0.00,,,0.15,83,Wunderground v.1.15,2013-03-16 20:54:00,
2013-03-16 16:59:00,41.8,37.9,29.86,NW,324,3.0,8.0,86,0.00,,,0.15,98,Wunderground v.1.15,2013-03-16 20:59:00,
2013-03-16 17:04:00,41.6,38.0,29.87,NW,322,4.0,6.0,87,0.00,,,0.15,88,Wunderground v.1.15,2013-03-16 21:04:00,
2013-03-16 17:10:00,41.3,37.7,29.88,NW,325,5.0,5.0,87,0.00,,,0.15,109,Wunderground v.1.15,2013-03-16 21:10:00,
2013-03-16 17:15:00,41.2,37.9,29.88,NW,319,4.0,6.0,88,0.00,,,0.15,95,Wunderground v.1.15,2013-03-16 21:15:00,
2013-03-16 17:20:00,41.0,37.4,29.88,NW,325,3.0,4.0,87,0.00,,,0.15,98,Wunderground v.1.15,2013-03-16 21:20:00,
2013-03-16 17:25:00,40.9,37.3,29.89,WNW,297,4.0,6.0,87,0.00,,,0.15,77,Wunderground v.1.15,2013-03-16 21:25:00,
2013-03-16 17:30:00,40.6,37.0,29.89,NW,323,3.0,3.0,87,0.00,,,0.15,67,Wunderground v.1.15,2013-03-16 21:30:00,
2013-03-16 17:35:00,40.4,36.8,29.89,WNW,293,2.0,7.0,87,0.00,,,0.15,49,Wunderground v.1.15,2013-03-16 21:35:00,
2013-03-16 17:40:00,40.2,36.6,29.90,NW,323,4.0,4.0,87,0.00,,,0.15,44,Wunderground v.1.15,2013-03-16 21:40:00,
2013-03-16 17:45:00,40.2,36.6,29.90,NW,311,3.0,4.0,87,0.00,,,0.15,42,Wunderground v.1.15,2013-03-16 21:45:00,
2013-03-16 17:50:00,40.0,36.7,29.90,NW,321,4.0,6.0,88,0.00,,,0.15,51,Wunderground v.1.15,2013-03-16 21:50:00,
2013-03-16 17:55:00,39.8,36.5,29.90,NW,311,5.0,6.0,88,0.00,,,0.15,62,Wunderground v.1.15,2013-03-16 21:55:00,
2013-03-16 18:00:00,39.6,36.0,29.90,NW,308,4.0,4.0,87,0.00,,,0.15,60,Wunderground v.1.15,2013-03-16 22:00:00,
2013-03-16 18:05:00,39.4,35.9,29.90,ENE,61,7.0,9.0,87,0.00,,,0.15,63,Wunderground v.1.15,2013-03-16 22:05:00,
2013-03-16 18:10:00,39.2,35.7,29.91,NW,311,5.0,6.0,87,0.00,,,0.15,81,Wunderground v.1.15,2013-03-16 22:10:00,
2013-03-16 18:15:00,39.0,35.5,29.91,NW,323,4.0,10.0,87,0.00,,,0.15,81,Wunderground v.1.15,2013-03-16 22:15:00,
2013-03-16 18:20:00,39.0,35.5,29.92,NW,323,5.0,5.0,87,0.00,,,0.15,79,Wunderground v.1.15,2013-03-16 22:20:00,
2013-03-16 18:25:00,38.9,35.4,29.92,NW,321,5.0,9.0,87,0.00,,,0.15,47,Wunderground v.1.15,2013-03-16 22:25:00,
2013-03-16 18:30:00,38.7,35.2,29.93,WNW,296,3.0,4.0,87,0.00,,,0.15,39,Wunderground v.1.15,2013-03-16 22:30:00,
2013-03-16 18:35:00,38.5,35.0,29.93,NW,320,5.0,8.0,87,0.00,,,0.15,42,Wunderground v.1.15,2013-03-16 22:35:00,
2013-03-16 18:40:00,38.3,34.8,29.93,NNW,331,4.0,5.0,87,0.00,,,0.15,26,Wunderground v.1.15,2013-03-16 22:40:00,
2013-03-16 18:45:00,38.2,34.7,29.93,NW,325,3.0,5.0,87,0.00,,,0.15,25,Wunderground v.1.15,2013-03-16 22:45:00,
2013-03-16 18:50:00,38.2,34.7,29.94,NNW,332,5.0,6.0,87,0.00,,,0.15,25,Wunderground v.1.15,2013-03-16 22:50:00,
2013-03-16 18:55:00,38.1,34.6,29.94,WNW,302,2.0,9.0,87,0.00,,,0.15,21,Wunderground v.1.15,2013-03-16 22:55:00,
2013-03-16 19:00:00,38.0,34.5,29.95,NW,314,3.0,3.0,87,0.00,,,0.15,18,Wunderground v.1.15,2013-03-16 23:00:00,
2013-03-16 19:05:00,37.9,34.7,29.95,NW,316,4.0,6.0,88,0.00,,,0.15,18,Wunderground v.1.15,2013-03-16 23:05:00,
2013-03-16 19:10:00,37.7,34.2,29.95,NNW,336,2.0,3.0,87,0.00,,,0.15,11,Wunderground v.1.15,2013-03-16 23:10:00,
2013-03-16 19:15:00,37.6,34.1,29.95,NNW,336,3.0,5.0,87,0.00,,,0.15,11,Wunderground v.1.15,2013-03-16 23:15:00,
2013-03-16 19:20:00,37.4,33.9,29.95,NW,323,4.0,4.0,87,0.00,,,0.15,9,Wunderground v.1.15,2013-03-16 23:20:00,
2013-03-16 19:25:00,37.3,33.8,29.95,NW,304,2.0,5.0,87,0.00,,,0.15,7,Wunderground v.1.15,2013-03-16 23:25:00,
2013-03-16 19:30:00,37.1,33.6,29.95,NNE,17,3.0,3.0,87,0.00,,,0.15,5,Wunderground v.1.15,2013-03-16 23:30:00,
2013-03-16 19:35:00,37.0,33.5,29.95,NW,317,3.0,6.0,87,0.00,,,0.15,0,Wunderground v.1.15,2013-03-16 23:35:00,
2013-03-16 19:40:00,36.9,33.4,29.95,NNW,343,2.0,3.0,87,0.00,,,0.15,0,Wunderground v.1.15,2013-03-16 23:40:00,
2013-03-16 19:45:00,36.7,33.2,29.96,NNW,331,0.0,3.0,87,0.00,,,0.15,0,Wunderground v.1.15,2013-03-16 23:45:00,
2013-03-16 19:50:00,36.6,33.4,29.96,North,350,3.0,3.0,88,0.00,,,0.15,0,Wunderground v.1.15,2013-03-16 23:50:00,
2013-03-16 19:55:00,36.6,33.4,29.96,NNW,338,1.0,7.0,88,0.00,,,0.15,0,Wunderground v.1.15,2013-03-16 23:55:00,
2013-03-16 20:00:00,36.5,33.0,29.96,North,5,2.0,4.0,87,0.00,,,0.15,0,Wunderground v.1.15,2013-03-17 00:00:00,
2013-03-16 20:05:00,36.4,33.2,29.96,NW,326,2.0,5.0,88,0.00,,,0.15,0,Wunderground v.1.15,2013-03-17 00:05:00,
2013-03-16 20:10:00,36.4,32.9,29.97,NNE,30,1.0,4.0,87,0.00,,,0.15,0,Wunderground v.1.15,2013-03-17 00:10:00,
2013-03-16 20:15:00,36.2,32.7,29.97,NE,45,3.0,6.0,87,0.00,,,0.15,0,Wunderground v.1.15,2013-03-17 00:15:00,
2013-03-16 20:20:00,36.1,32.6,29.97,NE,36,0.0,4.0,87,0.00,,,0.15,0,Wunderground v.1.15,2013-03-17 00:20:00,
2013-03-16 20:25:00,36.0,32.5,29.97,NNE,28,5.0,5.0,87,0.00,,,0.15,0,Wunderground v.1.15,2013-03-17 00:25:00,
2013-03-16 20:30:00,35.9,32.4,29.96,NNE,30,2.0,5.0,87,0.00,,,0.15,0,Wunderground v.1.15,2013-03-17 00:30:00,
2013-03-16 20:35:00,35.7,32.2,29.96,NNE,13,0.0,5.0,87,0.00,,,0.15,0,Wunderground v.1.15,2013-03-17 00:35:00,
2013-03-16 20:40:00,35.7,32.2,29.97,NE,36,4.0,4.0,87,0.00,,,0.15,0,Wunderground v.1.15,2013-03-17 00:40:00,
2013-03-16 20:45:00,35.5,32.0,29.97,NW,322,5.0,5.0,87,0.00,,,0.15,0,Wunderground v.1.15,2013-03-17 00:45:00,
2013-03-16 20:50:00,35.4,31.9,29.96,NNW,336,2.0,4.0,87,0.00,,,0.15,0,Wunderground v.1.15,2013-03-17 00:50:00,
2013-03-16 20:55:00,35.3,32.1,29.96,North,5,3.0,4.0,88,0.00,,,0.15,0,Wunderground v.1.15,2013-03-17 00:55:00,
2013-03-16 21:00:00,35.3,32.1,29.96,NE,46,4.0,5.0,88,0.00,,,0.15,0,Wunderground v.1.15,2013-03-17 01:00:00,
2013-03-16 21:05:00,35.3,32.1,29.96,NE,53,2.0,6.0,88,0.00,,,0.15,0,Wunderground v.1.15,2013-03-17 01:05:00,
2013-03-16 21:10:00,35.2,32.0,29.96,NNE,32,3.0,4.0,88,0.00,,,0.15,0,Wunderground v.1.15,2013-03-17 01:10:00,
2013-03-16 21:15:00,35.2,32.3,29.96,NE,35,6.0,10.0,89,0.00,,,0.15,0,Wunderground v.1.15,2013-03-17 01:15:00,
2013-03-16 21:20:00,35.1,32.2,29.97,NE,41,3.0,6.0,89,0.00,,,0.15,0,Wunderground v.1.15,2013-03-17 01:20:00,
2013-03-16 21:25:00,35.0,32.1,29.97,NNE,32,4.0,7.0,89,0.00,,,0.15,0,Wunderground v.1.15,2013-03-17 01:25:00,
2013-03-16 21:31:00,35.0,32.1,29.98,NNE,31,3.0,5.0,89,0.00,,,0.15,0,Wunderground v.1.15,2013-03-17 01:31:00,
2013-03-16 21:36:00,34.9,32.0,29.98,NNW,331,2.0,6.0,89,0.00,,,0.15,0,Wunderground v.1.15,2013-03-17 01:36:00,
2013-03-16 21:41:00,34.7,31.8,29.98,NNE,19,1.0,3.0,89,0.00,,,0.15,0,Wunderground v.1.15,2013-03-17 01:41:00,
2013-03-16 21:46:00,34.6,31.7,29.98,NNE,24,1.0,5.0,89,0.00,,,0.15,0,Wunderground v.1.15,2013-03-17 01:46:00,
2013-03-16 21:51:00,34.6,31.7,29.99,North,11,2.0,4.0,89,0.00,,,0.15,0,Wunderground v.1.15,2013-03-17 01:51:00,
2013-03-16 21:56:00,34.6,31.7,29.99,North,11,1.0,4.0,89,0.00,,,0.15,0,Wunderground v.1.15,2013-03-17 01:56:00,
2013-03-16 22:01:00,34.6,31.7,29.99,NE,39,7.0,7.0,89,0.00,,,0.15,0,Wunderground v.1.15,2013-03-17 02:01:00,
2013-03-16 22:06:00,34.6,31.7,29.99,NE,38,0.0,7.0,89,0.00,,,0.15,0,Wunderground v.1.15,2013-03-17 02:06:00,
2013-03-16 22:12:00,34.5,31.6,30.00,NE,34,1.0,6.0,89,0.00,,,0.15,0,Wunderground v.1.15,2013-03-17 02:12:00,
2013-03-16 22:17:00,34.4,31.5,30.00,NE,34,0.0,6.0,89,0.00,,,0.15,0,Wunderground v.1.15,2013-03-17 02:17:00,
2013-03-16 22:22:00,34.4,31.5,30.01,NE,36,3.0,3.0,89,0.00,,,0.15,0,Wunderground v.1.15,2013-03-17 02:22:00,
2013-03-16 22:27:00,34.3,31.4,30.01,NE,36,1.0,4.0,89,0.00,,,0.15,0,Wunderground v.1.15,2013-03-17 02:27:00,
2013-03-16 22:32:00,34.4,31.8,30.01,NNE,22,2.0,4.0,90,0.00,,,0.15,0,Wunderground v.1.15,2013-03-17 02:32:00,
2013-03-16 22:37:00,34.5,31.6,30.01,NNE,28,0.0,4.0,89,0.00,,,0.15,0,Wunderground v.1.15,2013-03-17 02:37:00,
2013-03-16 22:42:00,34.4,31.8,30.02,NNE,28,3.0,3.0,90,0.00,,,0.15,0,Wunderground v.1.15,2013-03-17 02:42:00,
2013-03-16 22:47:00,34.4,31.5,30.02,NE,55,7.0,7.0,89,0.00,,,0.15,0,Wunderground v.1.15,2013-03-17 02:47:00,
2013-03-16 22:52:00,34.3,31.4,30.02,NE,43,0.0,4.0,89,0.00,,,0.15,0,Wunderground v.1.15,2013-03-17 02:52:00,
2013-03-16 22:57:00,34.2,31.3,30.03,NE,43,0.0,4.0,89,0.00,,,0.15,0,Wunderground v.1.15,2013-03-17 02:57:00,
2013-03-16 23:02:00,34.1,31.2,30.03,NE,42,0.0,3.0,89,0.00,,,0.15,0,Wunderground v.1.15,2013-03-17 03:02:00,
2013-03-16 23:07:00,34.0,31.1,30.03,NE,42,0.0,3.0,89,0.00,,,0.15,0,Wunderground v.1.15,2013-03-17 03:07:00,
2013-03-16 23:12:00,34.0,31.1,30.03,NE,42,0.0,2.0,89,0.00,,,0.15,0,Wunderground v.1.15,2013-03-17 03:12:00,
2013-03-16 23:17:00,34.0,31.1,30.03,NE,42,2.0,2.0,89,0.00,,,0.15,0,Wunderground v.1.15,2013-03-17 03:17:00,
2013-03-16 23:22:00,34.1,31.2,30.03,NE,42,5.0,5.0,89,0.00,,,0.15,0,Wunderground v.1.15,2013-03-17 03:22:00,
2013-03-16 23:27:00,34.0,31.1,30.03,NNE,33,1.0,6.0,89,0.00,,,0.15,0,Wunderground v.1.15,2013-03-17 03:27:00,
2013-03-16 23:32:00,33.9,31.0,30.03,NNW,328,2.0,2.0,89,0.00,,,0.15,0,Wunderground v.1.15,2013-03-17 03:32:00,
2013-03-16 23:37:00,33.9,31.0,30.03,NNW,333,2.0,4.0,89,0.00,,,0.15,0,Wunderground v.1.15,2013-03-17 03:37:00,
2013-03-16 23:43:00,33.9,31.0,30.03,North,349,2.0,3.0,89,0.00,,,0.15,0,Wunderground v.1.15,2013-03-17 03:43:00,
2013-03-16 23:48:00,33.9,31.0,30.04,NNE,31,0.0,3.0,89,0.00,,,0.15,0,Wunderground v.1.15,2013-03-17 03:48:00,
2013-03-16 23:53:00,33.8,30.9,30.04,NE,42,2.0,5.0,89,0.00,,,0.15,0,Wunderground v.1.15,2013-03-17 03:53:00,
2013-03-16 23:58:00,33.7,30.8,30.04,NE,49,0.0,5.0,89,0.00,,,0.15,0,Wunderground v.1.15,2013-03-17 03:58:00,